Miscellaneous Local Product
Issued by NWS Hastings, NE

Home | Current Version | Previous Version | Text Only | Print | Product List | Glossary On
Versions: 1 2 3 4 5 6 7 8 9 10 11 12 13 14 15 16 17 18 19 20 21 22 23 24 25 26 27 28 29 30 31 32 33 34 35 36 37 38 39 40 41 42 43 44 45 46 47 48 49 50
000
AXUS43 KGID 281002
MISGRI

GID CWA HOURLY WEATHER ROUNDUP
NATIONAL WEATHER SERVICE HASTINGS NE
500 AM CDT WED JUN 28 2017

NOTE: "FAIR" INDICATES FEW OR NO CLOUDS BELOW 12,000 FEET WITH NO
SIGNIFICANT WEATHER AND/OR OBSTRUCTIONS TO VISIBILITY.

...SOUTH CENTRAL NEBRASKA...

CITY           SKY/WX    TMP DP  RH WIND       PRES   REMARKS
GRAND ISLAND   CLOUDY    65  65 100 CALM      29.70R
HASTINGS       MOCLDY    69  64  84 SE9       29.70F
KEARNEY        MOCLDY    66  63  88 CALM      29.71R
ORD            PTCLDY    63  59  87 S5        29.68R
YORK           CLOUDY    66  64  94 CALM      29.70R
AURORA         PTCLDY    67  65  94 CALM      29.70R
LEXINGTON      CLOUDY    63  60  91 NW6       29.74R
HOLDREGE       CLOUDY    67  60  76 SW3       29.71S
HEBRON         CLOUDY    75  66  74 S9        29.72F

...NEBRASKA PANHANDLE...

CITY           SKY/WX    TMP DP  RH WIND       PRES   REMARKS
CHADRON        CLEAR     57  49  74 SW6       29.80R
ALLIANCE       CLEAR     51  49  92 W7        29.83R
SCOTTSBLUFF    CLEAR     54  48  80 NW7       29.86S
SIDNEY         CLEAR     50  47  89 NW9       29.88S

...WESTERN AND NORTH CENTRAL NEBRASKA...

CITY           SKY/WX    TMP DP  RH WIND       PRES   REMARKS
VALENTINE      CLEAR     61  54  77 SW10      29.71R
AINSWORTH      CLEAR     61  56  83 W12       29.70S
ONEILL         CLOUDY    62  59  88 W8        29.68F
BROKEN BOW     CLEAR     58  56  93 CALM      29.71R
IMPERIAL       CLEAR     56  53  90 W7        29.78S
NORTH PLATTE   CLEAR     59  57  93 N3        29.74F
MCCOOK         CLEAR     66  60  81 SW5       29.74F

...EASTERN NEBRASKA...

CITY           SKY/WX    TMP DP  RH WIND       PRES   REMARKS
NORFOLK        CLOUDY    65  62  90 S10       29.64F
SO SIOUX CITY  CLOUDY    67  65  93 S12G20    29.68R
TEKAMAH        CLOUDY    66  63  90 SE8       29.66F
COLUMBUS       CLOUDY    65  62  90 S8        29.68F
ALBION         CLOUDY    65  63  91 S6        29.67R
OMAHA EPPLEY   CLOUDY    68  63  84 S13       29.68F THUNDER
OFFUTT AFB     TSTM      64  62  92 SE16      29.71F
MILLARD        CLOUDY    65  64  96 S5        29.74F
LINCOLN        LGT RAIN  66  63  90 SE13      29.69F
NEBRASKA CITY  TSTM      64  64 100 E5        29.83F
BEATRICE       CLOUDY    71  69  93 SE9       29.78F
FALLS CITY     TSTM      69  67  93 N13       29.83S

...NORTHERN KANSAS...

CITY           SKY/WX    TMP DP  RH WIND       PRES   REMARKS
GOODLAND       CLEAR     61  59  93 S6        29.79S
HILL CITY      CLOUDY    70  62  76 S15G25    29.74S
NORTON         SUNNY     68  55  64 S14G23    29.70
PHILLIPSBURG   CLEAR     73  57  56 S17       29.69F
SMITH CENTER   CLEAR     72  61  68 S15       29.67F
HAYS           LGT RAIN  70  63  78 S8        29.78F
RUSSELL        CLOUDY    72  59  63 S17G25    29.72F
CONCORDIA      LGT RAIN  74  68  81 S22G32    29.74R
SALINA         LGT RAIN  79  68  69 SW18G29   29.81F
TOPEKA         MOCLDY    75  67  76 S15G24    29.82R



USA.gov is the U.S. government's official web portal to all federal, state and local government web resources and services.